sat.trackr.live / text

‹ back to catalog

STARLINK-35235

NORAD 65682 · 2025-212G

PAYLOAD ACTIVE UNKNOWN

§ Identity

Operator
Country
US
Launch date
2025-09-21
Launch site
AFETR
Launch vehicle
Mass (kg)
RCS (m²)

Purposes: comms

External: N2YO · Heavens-Above · Gunter

§ Orbital elements

Epoch: 2026-09-20T05:11:30.111072Z

Period
93.85 min
Inclination
53.1575°
Eccentricity
0.0001081
Mean motion
15.34413366 rev/d
Perigee alt
461.9 km
Apogee alt
463.4 km
Semi-major
6,840.8 km
B*
4.1981e-4
RAAN
157.3541°
Arg perigee
93.6202°
Mean anomaly
266.4924°
Rev number
5,704

§ Raw data

STARLINK-352351 65682U 25212G   26263.21632073  .00013840  00000+0  41981-3 0  99932 65682  53.1575 157.3541 0001081  93.6202 266.4924 15.34413366 57048

JSON: /api/v1/satellites/65682 · /tle

For live sub-satellite position, see the globe view (requires WebGL).

§ Visibility from observer

Set your observer location to see the next 7 days of passes ≥ 10°. The values pass through the URL so the page stays shareable.

No JS? Fill the form by hand. The geolocation button needs JavaScript.